TimeEST,TemperatureF,Dew PointF,Humidity,Sea Level PressureIn,VisibilityMPH,Wind Direction,Wind SpeedMPH,Gust SpeedMPH,PrecipitationIn,Events,Conditions,WindDirDegrees,DateUTC
12:53 AM,8.1,3.0,80,30.24,10.0,Calm,Calm,-,N/A,,Clear,0,2014-02-07 05:53:00
1:53 AM,9.0,3.9,80,30.23,10.0,SSW,4.6,-,N/A,,Clear,200,2014-02-07 06:53:00
2:53 AM,9.0,3.0,77,30.22,10.0,SSW,5.8,-,N/A,,Clear,200,2014-02-07 07:53:00
3:53 AM,3.0,-2.0,80,30.22,10.0,Calm,Calm,-,N/A,,Clear,0,2014-02-07 08:53:00
4:53 AM,3.0,-2.0,80,30.23,10.0,Calm,Calm,-,N/A,,Clear,0,2014-02-07 09:53:00
5:53 AM,3.0,-0.9,84,30.24,10.0,South,3.5,-,N/A,,Clear,180,2014-02-07 10:53:00
6:53 AM,6.1,1.0,80,30.25,9.0,Calm,Calm,-,N/A,,Clear,0,2014-02-07 11:53:00
7:53 AM,6.1,1.0,80,30.27,10.0,SSE,3.5,-,N/A,,Partly Cloudy,150,2014-02-07 12:53:00
8:53 AM,10.9,6.1,81,30.27,10.0,South,4.6,-,N/A,,Clear,190,2014-02-07 13:53:00
9:53 AM,19.9,9.0,62,30.27,10.0,SSW,5.8,-,N/A,,Partly Cloudy,200,2014-02-07 14:53:00
10:53 AM,23.0,6.1,48,30.26,10.0,West,6.9,18.4,N/A,,Scattered Clouds,280,2014-02-07 15:53:00
11:53 AM,25.0,6.1,45,30.23,10.0,West,9.2,-,N/A,,Partly Cloudy,280,2014-02-07 16:53:00
12:53 PM,27.0,7.0,43,30.20,10.0,WSW,11.5,-,N/A,,Partly Cloudy,250,2014-02-07 17:53:00
1:53 PM,28.0,7.0,41,30.18,10.0,WNW,10.4,17.3,N/A,,Partly Cloudy,290,2014-02-07 18:53:00
2:53 PM,28.0,5.0,38,30.17,10.0,West,10.4,19.6,N/A,,Clear,260,2014-02-07 19:53:00
3:53 PM,28.0,5.0,38,30.17,10.0,WSW,8.1,-,N/A,,Partly Cloudy,240,2014-02-07 20:53:00
4:53 PM,28.0,3.9,36,30.19,10.0,WSW,6.9,-,N/A,,Partly Cloudy,240,2014-02-07 21:53:00
5:53 PM,27.0,6.1,41,30.21,10.0,WSW,4.6,-,N/A,,Mostly Cloudy,240,2014-02-07 22:53:00
6:53 PM,26.1,3.9,39,30.22,10.0,West,9.2,-,N/A,,Scattered Clouds,280,2014-02-07 23:53:00
7:53 PM,25.0,3.0,39,30.22,10.0,WSW,4.6,-,N/A,,Mostly Cloudy,250,2014-02-08 00:53:00
8:53 PM,25.0,3.9,41,30.24,10.0,West,5.8,-,N/A,,Mostly Cloudy,270,2014-02-08 01:53:00
9:53 PM,25.0,3.0,39,30.23,10.0,West,6.9,-,N/A,,Mostly Cloudy,260,2014-02-08 02:53:00
10:53 PM,23.0,1.0,39,30.23,10.0,West,3.5,-,N/A,,Partly Cloudy,270,2014-02-08 03:53:00
11:53 PM,21.0,1.0,42,30.23,10.0,Variable,3.5,-,N/A,,Clear,0,2014-02-08 04:53:00